Regional Weather Roundup
Issued by NWS

Home | Current Version | Previous Version | Graphics & Text | Print | Product List | Glossary On
Versions: 1 2 3 4 5 6 7 8 9 10 11 12 13 14 15 16 17 18 19 20 21 22 23 24 25 26 27 28 29 30 31 32 33 34 35 36 37 38 39 40 41 42 43 44 45 46 47 48 49 50
000
ASUS43 KBIS 200702
RWRND

NORTH DAKOTA REGIONAL WEATHER ROUNDUP
NATIONAL WEATHER SERVICE BISMARCK ND
200 AM CDT SUN AUG 20 2017

NOTE: "FAIR" INDICATES FEW OR NO CLOUDS BELOW 12,000 FEET WITH NO
SIGNIFICANT WEATHER AND/OR OBSTRUCTIONS TO VISIBILITY.


NDZ001>003-009>011-017-200800-
NORTHWEST NORTH DAKOTA

CITY           SKY/WX    TMP DP  RH WIND       PRES   REMARKS
WILLISTON      PTCLDY    57  40  52 N8        29.99R
MINOT          MOCLDY    62  42  47 W12       29.92R
MINOT AFB      MOCLDY    58  42  54 NW10      29.91R
$$

NDZ018>021-031>035-040>046-200800-
SOUTHWEST NORTH DAKOTA

CITY           SKY/WX    TMP DP  RH WIND       PRES   REMARKS
BISMARCK       CLEAR     68  47  46 N13       29.92R
DICKINSON      MOCLDY    60  43  53 N5        29.97R
GARRISON         N/A     55  47  74 N9        29.94R
HETTINGER ARPT CLEAR     63  44  50 N13       30.00R
$$

NDZ004>008-012>016-024-026-027-054-200800-
NORTHEAST NORTH DAKOTA

CITY           SKY/WX    TMP DP  RH WIND       PRES   REMARKS
GRAND FORKS    PTCLDY    69  63  81 NW12      29.75R
GRND FRKS AFB  CLOUDY    68  58  69 N12       29.77R
DEVILS LAKE    CLEAR     64  52  64 NW14G20   29.86R
$$

NDZ022-023-025-028>030-036>039-047>053-200800-
SOUTHEAST NORTH DAKOTA

CITY           SKY/WX    TMP DP  RH WIND       PRES   REMARKS
FARGO          PTCLDY    68  65  90 S10       29.77F
JAMESTOWN      CLEAR     66  56  70 NW14      29.85R
$$





USA.gov is the U.S. government's official web portal to all federal, state and local government web resources and services.